DMSP 5D-2 F11 DEB, 28344

Orbit data source: Space-Track

DMSP 5D-2 F11 DEB, 28344 is space debris in SSO originally from a launch on Thu, 28 Nov 1991 UTC launched from the Air Force Western Test Range (AFWTR). Debris objects in space refer to the collection of defunct objects orbiting the Earth. Examples of debris include non-operational satellites, rocket bodies, and fragments generated from explosions, collisions, or faulty payload assembly.

Loading next visibility...
Identifier
28344, 1991-082BH
Orbit
SSO
Country
Flag of USUS
Related business
Manufacturer
Unknown
Mission
Spacecraft
Bus & Motor
Unknown
Mass
Unknown
Launch date (UTC)
1991-11-28 (34 years ago)
Launch vehicle
Unknown
Launch site
Air Force Western Test Range (AFWTR)
Object type
Payload
Rocket body
Debris
Shape & HBR
Unknown shape, 0.1 m
Radar Cross Section
Small (<0.1 m²)

Expand to show TLE details & history
Last TLE update: 16 hours ago

TLE from 16 hours ago
0 DMSP 5D-2 F11 DEB
1 28344U 91082BH  25349.73222596  .00010027  00000-0  16919-2 0  9998
2 28344  98.5247  77.2256 0006078 198.6474 313.4896 14.69652045655931
Epoch: 2025-12-15T17:34Z
TLE epoch observation values (Epoch: 2025-12-15T17:34:24.322Z)
Latitude
27.62133°
Longitude
-86.52819°
Altitude
662.675 km
Speed
7.53 km/s
True Right ascension
17h 26m 47s
True Declination
27° 28' 42"
Sunlit
Object was in daylight at epoch
Visualization orbit readout
Latitude
Unknown
Longitude
Unknown
Altitude
Unknown
Speed
Unknown
Apparent Right ascension
Unknown
Apparent Declination
Unknown
Sunlit
N/A
Visualization observer readout
Local Sidereal Time
08:35:31
Azimuth
Unknown
Elevation
Unknown
Doppler factor
Unknown
Orbital elements
Apogee altitude
663.54 km
Perigee altitude
654.985 km
Semi-major axis
7,037.4 km
Eccentricity
0.00061
Inclination
98.5247°
RAAN
77.2256°
Arg. of periapsis
198.6474°
True anomaly
313.43904°
Mean anomaly
313.4896°
Eccentric anomaly
313.46432°
Mean motion
3.67642 °/min
Orbital period
97.92 mins
BSTAR
0.0016919
Loading maneuver chart data...
Computing Atmospheric mass density...

Documentation

Showing up to 5 results
|